{"data":{"norad_id":65200,"intl_designator":"2025-176C","name":"STARLINK-34865","alt_names":[],"object_type":"PAYLOAD","status":"ACTIVE","operator":null,"country":"US","launch_date":"2025-08-14","launch_site_code":"AFETR","launch_vehicle":null,"mission":null,"orbit_class":"UNKNOWN","rcs_meters":null,"size_class":null,"mass_kg":null,"dimensions":null,"purposes":["comms"],"wikipedia_slug":null,"has_3d_model":false,"image_url":null,"decayed_at":null,"tle_current":{"epoch":"2026-09-20T10:45:19.347840Z","epoch_age_seconds":125420,"freshness":"FRESH","line1":"1 65200U 25176C   26263.44814060  .00018543  00000+0  55852-3 0  9998","line2":"2 65200  53.1607 324.2149 0001135  81.9845 278.1286 15.34403990 62995","mean_motion":15.3440399,"eccentricity":0.0001135,"inclination_deg":53.1607,"raan_deg":324.2149,"arg_perigee_deg":81.9845,"mean_anomaly_deg":278.1286,"bstar":0.00055852,"rev_number":6299,"period_min":93.847514043547,"perigee_km":461.91494709069,"apogee_km":463.46781513321,"semimajor_km":6840.8283811119,"source":"CELESTRAK","updated_at":"2026-09-21T09:00:35.533274Z"}}}